Location: Unspecified
(0.0000°N, 0.0000°E)
Time: 19:42:29
(UTC+00:00)

N. Korean satellite - Pass Details

Date: 12 September 2019
Orbit: 455 x 509 km, 97.2° (Epoch: 17 September)

Event Time Altitude Azimuth Distance (km) Brightness Sun altitude
Rises 05:24:34 0° 16° (NNE) 2,452 10.4 -8.0°
Reaches altitude 10° 05:26:36 10° 20° (NNE) 1,584 9.5 -7.4°
Maximum altitude 05:29:57 60° 100° (E) 525 7.1 -6.6°
Drops below altitude 10° 05:33:21 10° 182° (S) 1,606 9.1 -5.8°
Sets 05:35:25 0° 185° (S) 2,489 10.1 -5.3°
